Home   Weather   Coquitlam   Past weeks
Flag for Canada

Past Weather in Coquitlam, British Columbia, Canada — Yesterday and Last 2 Weeks

Now
54 °F

Cool.


Feels Like: 54 °F
Forecast: 68 / 52 °F
Wind: 2 mph from South

Location: P. Meadows Coastal Station

Current Time: Jul 19, 2019 at 6:06:32 am

Latest Report: Jul 19, 2019 at 5:00 am


Visibility: N/A

Pressure: 30.05 "Hg

Humidity: 87%

Dew Point: 51 °F

Location of CoquitlamLocation

Past Weather in Coquitlam — Graph

°F

Coquitlam Temperature Yesterday

Maximum temperature yesterday: 70 °F (at 3:00 pm)
Minimum temperature yesterday: 59 °F (at 5:00 am)
Average temperature yesterday: 64 °F

High & Low Weather Summary for the Past Weeks

 TemperatureHumidityPressure
High79 °F (Jul 9, 4:00 pm)100% (Jul 8, 5:00 am)30.14 "Hg (Jul 8, 5:00 am)
Low53 °F (Jul 19, 4:00 am)38% (Jul 12, 5:00 pm)29.81 "Hg (Jul 17, 7:00 pm)
Average64 °F75%30.01 "Hg
* Reported Jul 4 4:00 am — Jul 19 4:00 am, Coquitlam. Weather by CustomWeather, © 2019

Note: Actual official high and low records may vary slightly from our data, if they occured in-between our weather recording intervals... More about our weather records

Advertising

Coquitlam Weather History for the Previous 24 Hours

Scroll right to see more
 ConditionsComfort  
Time TempWeatherWind HumidityBarometerVisibility
4:00 am
Fri, Jul 19
53 °FCool.2 mph90%30.05 "HgN/A
3:00 am55 °FCool.No wind88%30.03 "HgN/A
2:00 am57 °FCool.2 mph83%30.03 "HgN/A
1:00 am58 °FCool.2 mph79%30.01 "HgN/A
12:00 am59 °FCool.2 mph72%30.01 "HgN/A
11:00 pm
Thu, Jul 18
61 °FCool.3 mph64%30.00 "HgN/A
10:00 pm63 °FMild.10 mph62%30.01 "HgN/A
9:00 pm63 °FMild.9 mph68%30.00 "HgN/A
8:00 pm66 °FMild.5 mph54%29.99 "HgN/A
7:00 pm68 °FMild.6 mph45%29.99 "HgN/A
6:00 pm70 °FMild.5 mph41%29.99 "HgN/A
5:00 pm70 °FMild.7 mph38%30.00 "HgN/A
4:00 pm69 °FMild.6 mph39%30.01 "HgN/A
3:00 pm70 °FMild.8 mph39%30.01 "HgN/A
2:00 pm69 °FMild.8 mph44%30.01 "HgN/A
1:00 pm67 °FMild.7 mph50%30.01 "HgN/A
12:00 pm67 °FMild.9 mph54%30.01 "HgN/A
11:00 am65 °FMild.3 mph56%29.99 "HgN/A
10:00 am65 °FMild.6 mph65%29.98 "HgN/A
9:00 am62 °FMild.6 mph70%29.98 "HgN/A
8:00 am60 °FCool.5 mph74%29.96 "HgN/A
7:00 am59 °FCool.5 mph79%29.95 "HgN/A
6:00 am59 °FCool.5 mph80%29.93 "HgN/A
Weather by CustomWeather, © 2019

See weather overview